Time,TemperatureF,DewpointF,PressureIn,WindDirection,WindDirectionDegrees,WindSpeedMPH,WindSpeedGustMPH,Humidity,HourlyPrecipIn,Conditions,Clouds,dailyrainin,SoftwareType,DateUTC
2013-01-31 00:00:00,43.5,29.3,30.60,ENE,58,0.0,4.0,57,0.00,,,0.00,Wunderground v.1.15,2013-01-31 08:00:00,
2013-01-31 00:05:00,42.8,29.0,30.60,ENE,58,0.0,4.0,58,0.00,,,0.00,Wunderground v.1.15,2013-01-31 08:05:00,
2013-01-31 00:15:00,42.9,29.1,30.60,ENE,58,0.0,4.0,58,0.00,,,0.00,Wunderground v.1.15,2013-01-31 08:15:00,
2013-01-31 00:20:00,43.5,29.3,30.60,ENE,58,1.0,1.0,57,0.00,,,0.00,Wunderground v.1.15,2013-01-31 08:20:00,
2013-01-31 00:30:00,44.4,29.2,30.59,ENE,58,0.0,0.0,55,0.00,,,0.00,Wunderground v.1.15,2013-01-31 08:30:00,
2013-01-31 00:35:00,44.6,29.0,30.60,ENE,58,0.0,4.0,54,0.00,,,0.00,Wunderground v.1.15,2013-01-31 08:35:00,
2013-01-31 00:45:00,44.6,29.0,30.60,ENE,58,0.0,4.0,54,0.00,,,0.00,Wunderground v.1.15,2013-01-31 08:45:00,
2013-01-31 00:50:00,44.5,28.9,30.60,ENE,58,0.0,4.0,54,0.00,,,0.00,Wunderground v.1.15,2013-01-31 08:50:00,
2013-01-31 01:00:00,43.9,28.8,30.59,ENE,58,0.0,4.0,55,0.00,,,0.00,Wunderground v.1.15,2013-01-31 09:00:00,
2013-01-31 01:05:00,44.5,28.9,30.59,ENE,58,0.0,4.0,54,0.00,,,0.00,Wunderground v.1.15,2013-01-31 09:05:00,
2013-01-31 01:15:00,44.1,28.9,30.59,ENE,58,0.0,0.0,55,0.00,,,0.00,Wunderground v.1.15,2013-01-31 09:15:00,
2013-01-31 01:25:00,44.0,28.9,30.59,ENE,58,0.0,0.0,55,0.00,,,0.00,Wunderground v.1.15,2013-01-31 09:25:00,
2013-01-31 01:30:00,44.5,28.9,30.59,ENE,58,0.0,0.0,54,0.00,,,0.00,Wunderground v.1.15,2013-01-31 09:30:00,
2013-01-31 01:35:00,45.1,29.0,30.60,ENE,58,0.0,2.0,53,0.00,,,0.00,Wunderground v.1.15,2013-01-31 09:35:00,
2013-01-31 01:45:00,45.6,29.0,30.60,ENE,58,1.0,2.0,52,0.00,,,0.00,Wunderground v.1.15,2013-01-31 09:45:00,
2013-01-31 01:50:00,46.0,29.3,30.59,ENE,58,2.0,3.0,52,0.00,,,0.00,Wunderground v.1.15,2013-01-31 09:50:00,
2013-01-31 01:55:00,46.3,29.1,30.59,ENE,58,2.0,3.0,51,0.00,,,0.00,Wunderground v.1.15,2013-01-31 09:55:00,
2013-01-31 02:05:00,46.4,29.2,30.59,ENE,58,0.0,5.0,51,0.00,,,0.00,Wunderground v.1.15,2013-01-31 10:05:00,
2013-01-31 02:15:00,45.9,29.2,30.59,ENE,58,1.0,5.0,52,0.00,,,0.00,Wunderground v.1.15,2013-01-31 10:15:00,
2013-01-31 02:20:00,46.2,29.5,30.59,ENE,58,1.0,1.0,52,0.00,,,0.00,Wunderground v.1.15,2013-01-31 10:20:00,
2013-01-31 02:30:00,46.0,29.3,30.59,ENE,57,0.0,5.0,52,0.00,,,0.00,Wunderground v.1.15,2013-01-31 10:30:00,
2013-01-31 02:35:00,46.3,29.1,30.59,ENE,58,0.0,5.0,51,0.00,,,0.00,Wunderground v.1.15,2013-01-31 10:35:00,
2013-01-31 02:45:00,46.0,29.3,30.58,ENE,57,0.0,5.0,52,0.00,,,0.00,Wunderground v.1.15,2013-01-31 10:45:00,
2013-01-31 02:55:00,45.8,29.2,30.58,ENE,57,0.0,5.0,52,0.00,,,0.00,Wunderground v.1.15,2013-01-31 10:55:00,
2013-01-31 03:00:00,46.3,29.6,30.58,ENE,57,0.0,5.0,52,0.00,,,0.00,Wunderground v.1.15,2013-01-31 11:00:00,
2013-01-31 03:10:00,46.7,29.5,30.58,ENE,57,0.0,0.0,51,0.00,,,0.00,Wunderground v.1.15,2013-01-31 11:10:00,
2013-01-31 03:15:00,47.0,29.3,30.57,ENE,57,0.0,0.0,50,0.00,,,0.00,Wunderground v.1.15,2013-01-31 11:15:00,
2013-01-31 03:20:00,47.0,29.3,30.57,ENE,57,0.0,0.0,50,0.00,,,0.00,Wunderground v.1.15,2013-01-31 11:20:00,
2013-01-31 03:30:00,47.0,29.3,30.57,ENE,57,0.0,0.0,50,0.00,,,0.00,Wunderground v.1.15,2013-01-31 11:30:00,
2013-01-31 03:35:00,47.1,29.4,30.57,NE,49,1.0,1.0,50,0.00,,,0.00,Wunderground v.1.15,2013-01-31 11:35:00,
2013-01-31 03:45:00,47.1,29.4,30.57,NE,49,0.0,5.0,50,0.00,,,0.00,Wunderground v.1.15,2013-01-31 11:45:00,
2013-01-31 03:50:00,46.5,29.3,30.57,NE,49,0.0,5.0,51,0.00,,,0.00,Wunderground v.1.15,2013-01-31 11:50:00,
2013-01-31 03:55:00,47.1,29.4,30.57,NE,49,1.0,5.0,50,0.00,,,0.00,Wunderground v.1.15,2013-01-31 11:55:00,
2013-01-31 04:00:00,47.7,29.5,30.57,North,6,2.0,5.0,49,0.00,,,0.00,Wunderground v.1.15,2013-01-31 12:00:00,
2013-01-31 04:10:00,48.0,29.7,30.57,North,357,4.0,10.0,49,0.00,,,0.00,Wunderground v.1.15,2013-01-31 12:10:00,
2013-01-31 04:15:00,48.0,29.7,30.57,NNW,348,4.0,10.0,49,0.00,,,0.00,Wunderground v.1.15,2013-01-31 12:15:00,
2013-01-31 04:20:00,48.1,29.8,30.57,NNW,346,3.0,3.0,49,0.00,,,0.00,Wunderground v.1.15,2013-01-31 12:20:00,
2013-01-31 04:30:00,47.9,29.1,30.57,North,360,1.0,1.0,48,0.00,,,0.00,Wunderground v.1.15,2013-01-31 12:30:00,
2013-01-31 04:35:00,48.2,29.4,30.56,NNW,341,2.0,6.0,48,0.00,,,0.00,Wunderground v.1.15,2013-01-31 12:35:00,
2013-01-31 04:40:00,48.7,29.4,30.57,North,351,3.0,3.0,47,0.00,,,0.00,Wunderground v.1.15,2013-01-31 12:40:00,
2013-01-31 04:45:00,48.8,29.4,30.57,NNW,346,2.0,4.0,47,0.00,,,0.00,Wunderground v.1.15,2013-01-31 12:45:00,
2013-01-31 04:50:00,49.0,29.6,30.57,NNW,340,3.0,3.0,47,0.00,,,0.00,Wunderground v.1.15,2013-01-31 12:50:00,
2013-01-31 05:00:00,48.7,29.4,30.57,North,351,2.0,8.0,47,0.00,,,0.00,Wunderground v.1.15,2013-01-31 13:00:00,
2013-01-31 05:05:00,48.7,29.4,30.57,North,355,2.0,14.0,47,0.00,,,0.00,Wunderground v.1.15,2013-01-31 13:05:00,
2013-01-31 05:15:00,48.6,29.3,30.57,North,359,3.0,14.0,47,0.00,,,0.00,Wunderground v.1.15,2013-01-31 13:15:00,
2013-01-31 05:20:00,48.5,29.2,30.57,North,4,3.0,3.0,47,0.00,,,0.00,Wunderground v.1.15,2013-01-31 13:20:00,
2013-01-31 05:25:00,48.2,28.9,30.57,North,3,1.0,14.0,47,0.00,,,0.00,Wunderground v.1.15,2013-01-31 13:25:00,
2013-01-31 05:30:00,48.2,28.9,30.57,North,353,1.0,14.0,47,0.00,,,0.00,Wunderground v.1.15,2013-01-31 13:30:00,
2013-01-31 05:35:00,48.3,29.0,30.57,North,354,2.0,14.0,47,0.00,,,0.00,Wunderground v.1.15,2013-01-31 13:35:00,
2013-01-31 05:45:00,47.9,29.1,30.57,NNW,348,1.0,7.0,48,0.00,,,0.00,Wunderground v.1.15,2013-01-31 13:45:00,
2013-01-31 05:50:00,47.8,29.0,30.57,NNE,20,0.0,7.0,48,0.00,,,0.00,Wunderground v.1.15,2013-01-31 13:50:00,
2013-01-31 06:00:00,47.5,29.3,30.57,NNE,19,0.0,7.0,49,0.00,,,0.00,Wunderground v.1.15,2013-01-31 14:00:00,
2013-01-31 06:05:00,47.3,29.1,30.57,NNE,29,0.0,7.0,49,0.00,,,0.00,Wunderground v.1.15,2013-01-31 14:05:00,
2013-01-31 06:10:00,47.4,29.2,30.57,NNE,21,1.0,1.0,49,0.00,,,0.00,Wunderground v.1.15,2013-01-31 14:10:00,
2013-01-31 06:15:00,47.9,29.1,30.57,NNW,336,1.0,4.0,48,0.00,,,0.00,Wunderground v.1.15,2013-01-31 14:15:00,
2013-01-31 06:20:00,48.2,28.9,30.58,NNW,345,2.0,2.0,47,0.00,,,0.00,Wunderground v.1.15,2013-01-31 14:20:00,
2013-01-31 06:30:00,47.4,28.7,30.58,NNW,335,1.0,1.0,48,0.00,,,0.00,Wunderground v.1.15,2013-01-31 14:30:00,
2013-01-31 06:35:00,47.3,29.1,30.57,NNW,337,1.0,3.0,49,0.00,,,0.00,Wunderground v.1.15,2013-01-31 14:35:00,
2013-01-31 06:45:00,46.8,29.1,30.58,NNW,339,1.0,8.0,50,0.00,,,0.00,Wunderground v.1.15,2013-01-31 14:45:00,
2013-01-31 06:50:00,46.4,28.8,30.58,NNW,339,0.0,8.0,50,0.00,,,0.00,Wunderground v.1.15,2013-01-31 14:50:00,
2013-01-31 07:00:00,46.7,29.0,30.58,NNW,340,0.0,8.0,50,0.00,,,0.00,Wunderground v.1.15,2013-01-31 15:00:00,
2013-01-31 07:10:00,47.1,28.9,30.58,NNW,340,0.0,5.0,49,0.00,,,0.00,Wunderground v.1.15,2013-01-31 15:10:00,
2013-01-31 07:15:00,47.1,28.9,30.59,NNW,340,0.0,5.0,49,0.00,,,0.00,Wunderground v.1.15,2013-01-31 15:15:00,
2013-01-31 07:20:00,47.5,29.3,30.59,NNW,340,0.0,5.0,49,0.00,,,0.00,Wunderground v.1.15,2013-01-31 15:20:00,
2013-01-31 07:30:00,48.5,29.7,30.58,NNW,340,0.0,5.0,48,0.00,,,0.00,Wunderground v.1.15,2013-01-31 15:30:00,
2013-01-31 07:35:00,49.1,29.7,30.58,NNW,340,0.0,5.0,47,0.00,,,0.00,Wunderground v.1.15,2013-01-31 15:35:00,
2013-01-31 07:45:00,50.2,29.7,30.58,North,350,0.0,0.0,45,0.00,,,0.00,Wunderground v.1.15,2013-01-31 15:45:00,
2013-01-31 07:50:00,50.8,29.6,30.59,NNE,19,1.0,1.0,44,0.00,,,0.00,Wunderground v.1.15,2013-01-31 15:50:00,
2013-01-31 07:55:00,51.2,30.0,30.59,North,8,1.0,1.0,44,0.00,,,0.00,Wunderground v.1.15,2013-01-31 15:55:00,
2013-01-31 08:00:00,51.3,29.5,30.59,NNW,338,1.0,2.0,43,0.00,,,0.00,Wunderground v.1.15,2013-01-31 16:00:00,
2013-01-31 08:10:00,51.3,30.1,30.59,NNW,345,1.0,1.0,44,0.00,,,0.00,Wunderground v.1.15,2013-01-31 16:10:00,
2013-01-31 08:20:00,51.2,30.6,30.59,NW,325,2.0,2.0,45,0.00,,,0.00,Wunderground v.1.15,2013-01-31 16:20:00,
2013-01-31 08:30:00,51.3,30.1,30.59,NW,320,2.0,7.0,44,0.00,,,0.00,Wunderground v.1.15,2013-01-31 16:30:00,
2013-01-31 08:35:00,51.4,29.6,30.59,NW,325,4.0,7.0,43,0.00,,,0.00,Wunderground v.1.15,2013-01-31 16:35:00,
2013-01-31 08:45:00,51.8,29.4,30.60,NNW,339,4.0,7.0,42,0.00,,,0.00,Wunderground v.1.15,2013-01-31 16:45:00,
2013-01-31 08:50:00,52.0,29.6,30.60,North,355,5.0,7.0,42,0.00,,,0.00,Wunderground v.1.15,2013-01-31 16:50:00,
2013-01-31 09:00:00,52.3,29.9,30.60,NNW,346,5.0,5.0,42,0.00,,,0.00,Wunderground v.1.15,2013-01-31 17:00:00,
2013-01-31 09:05:00,52.4,30.0,30.60,NNW,340,4.0,9.0,42,0.00,,,0.00,Wunderground v.1.15,2013-01-31 17:05:00,
2013-01-31 09:15:00,52.8,30.3,30.61,NNW,346,5.0,6.0,42,0.00,,,0.00,Wunderground v.1.15,2013-01-31 17:15:00,
2013-01-31 09:20:00,53.0,30.5,30.61,North,349,5.0,9.0,42,0.00,,,0.00,Wunderground v.1.15,2013-01-31 17:20:00,
2013-01-31 09:30:00,53.4,30.9,30.61,NNW,341,4.0,9.0,42,0.00,,,0.00,Wunderground v.1.15,2013-01-31 17:30:00,
2013-01-31 09:40:00,53.5,31.0,30.61,NNW,341,5.0,10.0,42,0.00,,,0.00,Wunderground v.1.15,2013-01-31 17:40:00,
2013-01-31 09:45:00,53.6,31.0,30.62,NW,325,5.0,10.0,42,0.00,,,0.00,Wunderground v.1.15,2013-01-31 17:45:00,
2013-01-31 09:50:00,53.7,30.5,30.62,NNW,344,4.0,10.0,41,0.00,,,0.00,Wunderground v.1.15,2013-01-31 17:50:00,
2013-01-31 10:00:00,53.8,30.6,30.62,NW,322,6.0,10.0,41,0.00,,,0.00,Wunderground v.1.15,2013-01-31 18:00:00,
2013-01-31 10:10:00,54.1,30.9,30.62,NW,322,5.0,5.0,41,0.00,,,0.00,Wunderground v.1.15,2013-01-31 18:10:00,
2013-01-31 10:15:00,54.3,31.1,30.62,North,356,4.0,10.0,41,0.00,,,0.00,Wunderground v.1.15,2013-01-31 18:15:00,
2013-01-31 10:20:00,54.4,31.2,30.62,NNW,341,4.0,10.0,41,0.00,,,0.00,Wunderground v.1.15,2013-01-31 18:20:00,
2013-01-31 10:25:00,54.4,31.2,30.62,NW,309,4.0,10.0,41,0.00,,,0.00,Wunderground v.1.15,2013-01-31 18:25:00,
2013-01-31 10:35:00,54.2,31.0,30.62,NNW,341,6.0,11.0,41,0.00,,,0.00,Wunderground v.1.15,2013-01-31 18:35:00,
2013-01-31 10:45:00,54.4,31.2,30.62,NW,310,4.0,11.0,41,0.00,,,0.00,Wunderground v.1.15,2013-01-31 18:45:00,
2013-01-31 10:50:00,54.6,31.3,30.62,NW,310,4.0,11.0,41,0.00,,,0.00,Wunderground v.1.15,2013-01-31 18:50:00,
2013-01-31 11:00:00,54.6,30.7,30.62,NNW,327,3.0,3.0,40,0.00,,,0.00,Wunderground v.1.15,2013-01-31 19:00:00,
2013-01-31 11:05:00,54.8,30.9,30.61,NW,325,3.0,10.0,40,0.00,,,0.00,Wunderground v.1.15,2013-01-31 19:05:00,
2013-01-31 11:15:00,54.7,30.8,30.61,NNW,344,3.0,3.0,40,0.00,,,0.00,Wunderground v.1.15,2013-01-31 19:15:00,
2013-01-31 11:20:00,55.0,31.1,30.61,NW,320,3.0,10.0,40,0.00,,,0.00,Wunderground v.1.15,2013-01-31 19:20:00,
2013-01-31 11:30:00,55.5,30.9,30.60,WNW,302,5.0,5.0,39,0.00,,,0.00,Wunderground v.1.15,2013-01-31 19:30:00,
2013-01-31 11:35:00,55.7,31.1,30.60,NNW,327,5.0,6.0,39,0.00,,,0.00,Wunderground v.1.15,2013-01-31 19:35:00,
2013-01-31 11:40:00,55.9,31.3,30.60,NW,323,5.0,11.0,39,0.00,,,0.00,Wunderground v.1.15,2013-01-31 19:40:00,
2013-01-31 11:45:00,55.8,31.2,30.60,NW,312,6.0,11.0,39,0.00,,,0.00,Wunderground v.1.15,2013-01-31 19:45:00,
2013-01-31 11:55:00,56.1,30.8,30.59,NNW,331,5.0,7.0,38,0.00,,,0.00,Wunderground v.1.15,2013-01-31 19:55:00,
2013-01-31 12:00:00,56.1,30.8,30.59,West,280,6.0,11.0,38,0.00,,,0.00,Wunderground v.1.15,2013-01-31 20:00:00,
2013-01-31 12:05:00,56.2,30.2,30.58,NNW,332,6.0,12.0,37,0.00,,,0.00,Wunderground v.1.15,2013-01-31 20:05:00,
2013-01-31 12:15:00,57.0,30.3,30.58,West,279,6.0,12.0,36,0.00,,,0.00,Wunderground v.1.15,2013-01-31 20:15:00,
2013-01-31 12:20:00,57.1,30.4,30.58,West,273,7.0,7.0,36,0.00,,,0.00,Wunderground v.1.15,2013-01-31 20:20:00,
2013-01-31 12:25:00,57.0,30.3,30.57,NW,316,7.0,12.0,36,0.00,,,0.00,Wunderground v.1.15,2013-01-31 20:25:00,
2013-01-31 12:35:00,56.8,30.1,30.56,NNW,333,7.0,14.0,36,0.00,,,0.00,Wunderground v.1.15,2013-01-31 20:35:00,
2013-01-31 12:45:00,57.5,30.0,30.56,NNW,342,7.0,14.0,35,0.00,,,0.00,Wunderground v.1.15,2013-01-31 20:45:00,
2013-01-31 12:50:00,57.6,30.8,30.56,NW,317,7.0,7.0,36,0.00,,,0.00,Wunderground v.1.15,2013-01-31 20:50:00,
2013-01-31 12:55:00,58.0,30.5,30.55,WNW,302,7.0,14.0,35,0.00,,,0.00,Wunderground v.1.15,2013-01-31 20:55:00,
2013-01-31 13:00:00,58.0,30.5,30.55,NNW,335,7.0,7.0,35,0.00,,,0.00,Wunderground v.1.15,2013-01-31 21:00:00,
2013-01-31 13:05:00,58.0,29.8,30.55,NNW,337,7.0,8.0,34,0.00,,,0.00,Wunderground v.1.15,2013-01-31 21:05:00,
2013-01-31 13:15:00,58.4,30.1,30.54,North,356,8.0,8.0,34,0.00,,,0.00,Wunderground v.1.15,2013-01-31 21:15:00,
2013-01-31 13:20:00,58.6,30.3,30.53,NW,324,7.0,13.0,34,0.00,,,0.00,Wunderground v.1.15,2013-01-31 21:20:00,
2013-01-31 13:30:00,58.2,29.9,30.53,NW,318,8.0,8.0,34,0.00,,,0.00,Wunderground v.1.15,2013-01-31 21:30:00,
2013-01-31 13:35:00,58.5,30.2,30.53,NW,304,7.0,13.0,34,0.00,,,0.00,Wunderground v.1.15,2013-01-31 21:35:00,
2013-01-31 13:45:00,58.8,30.5,30.53,NW,309,7.0,13.0,34,0.00,,,0.00,Wunderground v.1.15,2013-01-31 21:45:00,
2013-01-31 13:50:00,59.4,30.3,30.52,WNW,301,7.0,13.0,33,0.00,,,0.00,Wunderground v.1.15,2013-01-31 21:50:00,
2013-01-31 14:00:00,58.9,29.8,30.52,NW,321,7.0,13.0,33,0.00,,,0.00,Wunderground v.1.15,2013-01-31 22:00:00,
2013-01-31 14:05:00,59.1,30.0,30.52,NW,321,7.0,14.0,33,0.00,,,0.00,Wunderground v.1.15,2013-01-31 22:05:00,
2013-01-31 14:15:00,59.4,30.3,30.52,NW,320,8.0,10.0,33,0.00,,,0.00,Wunderground v.1.15,2013-01-31 22:15:00,
2013-01-31 14:20:00,59.3,30.2,30.52,NNW,333,7.0,14.0,33,0.00,,,0.00,Wunderground v.1.15,2013-01-31 22:20:00,
2013-01-31 14:30:00,59.4,29.5,30.51,NNW,335,8.0,14.0,32,0.00,,,0.00,Wunderground v.1.15,2013-01-31 22:30:00,
2013-01-31 14:35:00,59.3,29.4,30.51,NW,318,9.0,15.0,32,0.00,,,0.00,Wunderground v.1.15,2013-01-31 22:35:00,
2013-01-31 14:40:00,59.5,29.6,30.51,NW,325,8.0,8.0,32,0.00,,,0.00,Wunderground v.1.15,2013-01-31 22:40:00,
2013-01-31 14:50:00,59.8,29.1,30.51,NNW,341,8.0,15.0,31,0.00,,,0.00,Wunderground v.1.15,2013-01-31 22:50:00,
2013-01-31 14:55:00,59.8,28.3,30.51,NW,319,9.0,15.0,30,0.00,,,0.00,Wunderground v.1.15,2013-01-31 22:55:00,
2013-01-31 15:00:00,59.8,28.3,30.51,NW,316,9.0,15.0,30,0.00,,,0.00,Wunderground v.1.15,2013-01-31 23:00:00,
2013-01-31 15:05:00,59.7,28.2,30.51,West,271,8.0,15.0,30,0.00,,,0.00,Wunderground v.1.15,2013-01-31 23:05:00,
2013-01-31 15:15:00,59.4,27.9,30.50,NW,323,8.0,15.0,30,0.00,,,0.00,Wunderground v.1.15,2013-01-31 23:15:00,
2013-01-31 15:20:00,59.1,28.5,30.51,NW,314,8.0,15.0,31,0.00,,,0.00,Wunderground v.1.15,2013-01-31 23:20:00,
2013-01-31 15:30:00,59.1,28.5,30.50,NNW,327,8.0,15.0,31,0.00,,,0.00,Wunderground v.1.15,2013-01-31 23:30:00,
2013-01-31 15:35:00,59.0,29.2,30.50,NNW,331,8.0,15.0,32,0.00,,,0.00,Wunderground v.1.15,2013-01-31 23:35:00,
2013-01-31 15:40:00,58.9,29.1,30.50,NNW,330,8.0,15.0,32,0.00,,,0.00,Wunderground v.1.15,2013-01-31 23:40:00,
2013-01-31 15:45:00,58.8,29.7,30.50,NW,311,8.0,15.0,33,0.00,,,0.00,Wunderground v.1.15,2013-01-31 23:45:00,
2013-01-31 15:50:00,58.8,29.0,30.50,NW,325,7.0,15.0,32,0.00,,,0.00,Wunderground v.1.15,2013-01-31 23:50:00,
2013-01-31 16:00:00,58.6,29.6,30.50,NNW,327,7.0,15.0,33,0.00,,,0.00,Wunderground v.1.15,2013-02-01 00:00:00,
2013-01-31 16:05:00,58.4,29.4,30.50,NW,308,7.0,15.0,33,0.00,,,0.00,Wunderground v.1.15,2013-02-01 00:05:00,
2013-01-31 16:15:00,58.2,29.2,30.50,NNW,332,6.0,14.0,33,0.00,,,0.00,Wunderground v.1.15,2013-02-01 00:15:00,
2013-01-31 16:20:00,58.2,29.2,30.50,NNW,327,6.0,14.0,33,0.00,,,0.00,Wunderground v.1.15,2013-02-01 00:20:00,
2013-01-31 16:25:00,58.0,29.8,30.50,NNW,338,5.0,14.0,34,0.00,,,0.00,Wunderground v.1.15,2013-02-01 00:25:00,
2013-01-31 16:30:00,57.8,29.6,30.50,NNW,344,5.0,14.0,34,0.00,,,0.00,Wunderground v.1.15,2013-02-01 00:30:00,
2013-01-31 16:35:00,57.7,29.5,30.50,NW,318,5.0,14.0,34,0.00,,,0.00,Wunderground v.1.15,2013-02-01 00:35:00,
2013-01-31 16:45:00,57.4,29.9,30.50,NNW,339,3.0,11.0,35,0.00,,,0.00,Wunderground v.1.15,2013-02-01 00:45:00,
2013-01-31 16:50:00,57.3,29.9,30.50,NNW,332,2.0,2.0,35,0.00,,,0.00,Wunderground v.1.15,2013-02-01 00:50:00,
2013-01-31 16:55:00,57.0,29.6,30.50,NNW,332,1.0,11.0,35,0.00,,,0.00,Wunderground v.1.15,2013-02-01 00:55:00,
2013-01-31 17:00:00,56.8,30.1,30.50,NNW,332,0.0,11.0,36,0.00,,,0.00,Wunderground v.1.15,2013-02-01 01:00:00,
2013-01-31 17:10:00,56.0,30.1,30.51,NNW,332,0.0,9.0,37,0.00,,,0.00,Wunderground v.1.15,2013-02-01 01:10:00,
2013-01-31 17:15:00,55.7,29.8,30.51,NNW,332,0.0,9.0,37,0.00,,,0.00,Wunderground v.1.15,2013-02-01 01:15:00,
2013-01-31 17:20:00,55.2,30.0,30.51,NNW,332,0.0,9.0,38,0.00,,,0.00,Wunderground v.1.15,2013-02-01 01:20:00,
2013-01-31 17:30:00,54.3,29.8,30.51,NNW,332,0.0,9.0,39,0.00,,,0.00,Wunderground v.1.15,2013-02-01 01:30:00,
2013-01-31 17:35:00,54.0,29.6,30.51,NNW,332,0.0,9.0,39,0.00,,,0.00,Wunderground v.1.15,2013-02-01 01:35:00,
2013-01-31 17:45:00,53.5,29.7,30.51,NNW,332,0.0,1.0,40,0.00,,,0.00,Wunderground v.1.15,2013-02-01 01:45:00,
2013-01-31 17:50:00,52.7,30.2,30.51,NNW,333,0.0,1.0,42,0.00,,,0.00,Wunderground v.1.15,2013-02-01 01:50:00,
2013-01-31 18:00:00,52.6,30.1,30.52,North,350,0.0,1.0,42,0.00,,,0.00,Wunderground v.1.15,2013-02-01 02:00:00,
2013-01-31 18:05:00,52.7,29.6,30.52,North,350,0.0,1.0,41,0.00,,,0.00,Wunderground v.1.15,2013-02-01 02:05:00,
2013-01-31 18:15:00,52.3,30.4,30.52,North,350,0.0,0.0,43,0.00,,,0.00,Wunderground v.1.15,2013-02-01 02:15:00,
2013-01-31 18:20:00,51.4,30.2,30.52,North,350,0.0,0.0,44,0.00,,,0.00,Wunderground v.1.15,2013-02-01 02:20:00,
2013-01-31 18:30:00,50.5,29.9,30.52,North,350,0.0,0.0,45,0.00,,,0.00,Wunderground v.1.15,2013-02-01 02:30:00,
2013-01-31 18:35:00,50.4,29.8,30.52,North,1,0.0,3.0,45,0.00,,,0.00,Wunderground v.1.15,2013-02-01 02:35:00,
2013-01-31 18:45:00,49.1,29.7,30.52,East,89,2.0,6.0,47,0.00,,,0.00,Wunderground v.1.15,2013-02-01 02:45:00,
2013-01-31 18:55:00,49.9,29.9,30.52,East,89,1.0,3.0,46,0.00,,,0.00,Wunderground v.1.15,2013-02-01 02:55:00,
2013-01-31 19:00:00,50.2,29.7,30.52,East,89,0.0,3.0,45,0.00,,,0.00,Wunderground v.1.15,2013-02-01 03:00:00,
2013-01-31 19:05:00,50.1,29.6,30.52,East,89,0.0,6.0,45,0.00,,,0.00,Wunderground v.1.15,2013-02-01 03:05:00,
2013-01-31 19:15:00,49.7,29.7,30.52,East,89,0.0,6.0,46,0.00,,,0.00,Wunderground v.1.15,2013-02-01 03:15:00,
2013-01-31 19:20:00,49.8,29.8,30.52,East,89,1.0,1.0,46,0.00,,,0.00,Wunderground v.1.15,2013-02-01 03:20:00,
2013-01-31 19:30:00,49.8,29.8,30.52,East,89,1.0,1.0,46,0.00,,,0.00,Wunderground v.1.15,2013-02-01 03:30:00,
2013-01-31 19:35:00,49.7,29.7,30.52,East,89,1.0,4.0,46,0.00,,,0.00,Wunderground v.1.15,2013-02-01 03:35:00,
2013-01-31 19:45:00,49.4,29.5,30.52,East,89,2.0,5.0,46,0.00,,,0.00,Wunderground v.1.15,2013-02-01 03:45:00,
2013-01-31 19:50:00,49.2,29.8,30.52,East,89,3.0,3.0,47,0.00,,,0.00,Wunderground v.1.15,2013-02-01 03:50:00,
2013-01-31 20:00:00,49.0,29.6,30.52,East,89,3.0,4.0,47,0.00,,,0.00,Wunderground v.1.15,2013-02-01 04:00:00,
2013-01-31 20:05:00,49.4,29.5,30.52,East,89,3.0,7.0,46,0.00,,,0.00,Wunderground v.1.15,2013-02-01 04:05:00,
2013-01-31 20:15:00,49.4,29.5,30.52,East,89,4.0,7.0,46,0.00,,,0.00,Wunderground v.1.15,2013-02-01 04:15:00,
2013-01-31 20:20:00,49.2,29.8,30.52,East,89,3.0,3.0,47,0.00,,,0.00,Wunderground v.1.15,2013-02-01 04:20:00,
2013-01-31 20:30:00,48.2,29.9,30.53,East,89,0.0,7.0,49,0.00,,,0.00,Wunderground v.1.15,2013-02-01 04:30:00,
2013-01-31 20:35:00,47.6,29.9,30.53,East,89,0.0,7.0,50,0.00,,,0.00,Wunderground v.1.15,2013-02-01 04:35:00,
2013-01-31 20:45:00,46.0,29.8,30.53,East,84,4.0,6.0,53,0.00,,,0.00,Wunderground v.1.15,2013-02-01 04:45:00,
2013-01-31 20:50:00,46.5,29.8,30.52,East,84,4.0,6.0,52,0.00,,,0.00,Wunderground v.1.15,2013-02-01 04:50:00,
2013-01-31 21:00:00,47.8,30.0,30.53,East,84,4.0,4.0,50,0.00,,,0.00,Wunderground v.1.15,2013-02-01 05:00:00,
2013-01-31 21:10:00,48.2,29.9,30.53,East,84,4.0,7.0,49,0.00,,,0.00,Wunderground v.1.15,2013-02-01 05:10:00,
2013-01-31 21:15:00,48.1,29.8,30.53,East,84,4.0,7.0,49,0.00,,,0.00,Wunderground v.1.15,2013-02-01 05:15:00,
2013-01-31 21:20:00,48.3,29.5,30.53,East,84,3.0,7.0,48,0.00,,,0.00,Wunderground v.1.15,2013-02-01 05:20:00,
2013-01-31 21:25:00,48.5,29.7,30.53,East,84,4.0,7.0,48,0.00,,,0.00,Wunderground v.1.15,2013-02-01 05:25:00,
2013-01-31 21:30:00,48.4,29.6,30.53,East,84,4.0,4.0,48,0.00,,,0.00,Wunderground v.1.15,2013-02-01 05:30:00,
2013-01-31 21:35:00,48.5,29.2,30.53,East,84,3.0,7.0,47,0.00,,,0.00,Wunderground v.1.15,2013-02-01 05:35:00,
2013-01-31 21:45:00,48.5,29.2,30.53,East,84,4.0,7.0,47,0.00,,,0.00,Wunderground v.1.15,2013-02-01 05:45:00,
2013-01-31 21:50:00,48.3,29.0,30.53,East,84,4.0,7.0,47,0.00,,,0.00,Wunderground v.1.15,2013-02-01 05:50:00,
2013-01-31 22:00:00,47.9,29.1,30.53,East,84,5.0,7.0,48,0.00,,,0.00,Wunderground v.1.15,2013-02-01 06:00:00,
2013-01-31 22:05:00,47.8,29.0,30.53,East,84,5.0,7.0,48,0.00,,,0.00,Wunderground v.1.15,2013-02-01 06:05:00,
2013-01-31 22:15:00,47.7,28.9,30.52,East,84,4.0,6.0,48,0.00,,,0.00,Wunderground v.1.15,2013-02-01 06:15:00,
2013-01-31 22:20:00,47.7,28.9,30.53,East,84,4.0,6.0,48,0.00,,,0.00,Wunderground v.1.15,2013-02-01 06:20:00,
2013-01-31 22:25:00,47.9,29.1,30.53,East,84,4.0,6.0,48,0.00,,,0.00,Wunderground v.1.15,2013-02-01 06:25:00,
2013-01-31 22:30:00,48.4,29.1,30.53,East,84,4.0,4.0,47,0.00,,,0.00,Wunderground v.1.15,2013-02-01 06:30:00,
2013-01-31 22:35:00,48.7,28.8,30.53,East,84,4.0,6.0,46,0.00,,,0.00,Wunderground v.1.15,2013-02-01 06:35:00,
2013-01-31 22:45:00,48.6,28.7,30.53,East,84,4.0,6.0,46,0.00,,,0.00,Wunderground v.1.15,2013-02-01 06:45:00,
2013-01-31 22:50:00,48.7,28.8,30.53,East,84,4.0,4.0,46,0.00,,,0.00,Wunderground v.1.15,2013-02-01 06:50:00,
2013-01-31 23:00:00,48.1,28.8,30.52,East,84,4.0,6.0,47,0.00,,,0.00,Wunderground v.1.15,2013-02-01 07:00:00,
2013-01-31 23:05:00,47.9,28.6,30.52,East,84,4.0,7.0,47,0.00,,,0.00,Wunderground v.1.15,2013-02-01 07:05:00,
2013-01-31 23:10:00,47.8,28.5,30.52,East,84,4.0,7.0,47,0.00,,,0.00,Wunderground v.1.15,2013-02-01 07:10:00,
2013-01-31 23:15:00,47.7,28.9,30.52,East,84,4.0,7.0,48,0.00,,,0.00,Wunderground v.1.15,2013-02-01 07:15:00,
2013-01-31 23:20:00,47.7,28.9,30.52,East,84,4.0,4.0,48,0.00,,,0.00,Wunderground v.1.15,2013-02-01 07:20:00,
2013-01-31 23:30:00,47.8,29.0,30.52,East,84,4.0,7.0,48,0.00,,,0.00,Wunderground v.1.15,2013-02-01 07:30:00,
2013-01-31 23:35:00,47.9,28.6,30.52,East,84,4.0,7.0,47,0.00,,,0.00,Wunderground v.1.15,2013-02-01 07:35:00,
2013-01-31 23:45:00,48.3,29.0,30.52,East,84,4.0,7.0,47,0.00,,,0.00,Wunderground v.1.15,2013-02-01 07:45:00,
2013-01-31 23:50:00,48.4,29.1,30.52,East,84,5.0,7.0,47,0.00,,,0.00,Wunderground v.1.15,2013-02-01 07:50:00,